Bloomington, IL

1:17 PM CDT on July 22, 2017 (GMT -0500)
Central Ill Regional

Weather History for KBMI - March, 2014

Change the Weather History Date:

Saturday, March 1, 2014

  Actual Average Record
Temperature  
Mean Temperature 22 °F -  
Max Temperature 32 °F 36 °F 64 °F (2004)
Min Temperature 12 °F 26 °F 12 °F (2014)
Degree Days  
Heating Degree Days 43    
Moisture  
Dew Point 14 °F    
Average Humidity 77    
Maximum Humidity 92    
Minimum Humidity 62    
Precipitation  
Precipitation 0.00 in - - ()
Sea Level Pressure  
Sea Level Pressure 30.23 in    
Wind  
Wind Speed 13 mph (North)    
Max Wind Speed 18 mph    
Max Gust Speed -    
Visibility 6 miles    
Events Snow    
Averages and records for this station are not official NWS values.
T = Trace of Precipitation, MM = Missing Value Source: NWS Daily Summary

Daily Weather History Graph

Daily Weather History Graph

Search for Another Location

Airport or City:

Trip Planner

Search our weather history database for the weather conditions in past years. The results will help you decide how hot, cold, wet, or windy it might be!

Date:

Astronomy

Mar. 01, 2014 Rise Set
Actual Time 6:29 AM CST 5:47 PM CST
Civil Twilight 6:02 AM CST 6:14 PM CST
Nautical Twilight 5:30 AM CST 6:46 PM CST
Astronomical Twilight 4:58 AM CST 7:17 PM CST
Moon 6:22 AM CST (3/1) 6:34 PM CST (3/1)
Length of Visible Light 12h 12m
Length of Day
11h 17m
New Moon, 0% of the Moon is Illuminated
Mar 1
New Moon
Mar 8
First Quarter
Mar 16
Full
Mar 23
Last Quarter
Mar 30
New

Hourly Weather History & Observations

Time (CST) Temp. Windchill Dew Point Humidity Pressure Visibility Wind Dir Wind Speed Gust Speed Precip Events Conditions
12:56 AM 27.1 °F 17.5 °F 18.1 °F 69% 30.06 in 10.0 mi SSW 10.4 mph - N/A   Mostly Cloudy
1:56 AM 28.0 °F 18.6 °F 18.1 °F 66% 30.06 in 10.0 mi SSW 10.4 mph - N/A   Scattered Clouds
2:56 AM 29.1 °F 19.4 °F 19.0 °F 66% 30.04 in 10.0 mi SSW 11.5 mph - N/A   Scattered Clouds
3:56 AM 32.0 °F 23.0 °F 20.1 °F 62% 30.08 in 10.0 mi West 11.5 mph - N/A   Overcast
4:56 AM 30.0 °F 26.5 °F 21.0 °F 69% 30.10 in 10.0 mi WSW 3.5 mph - N/A   Overcast
5:56 AM 31.1 °F 25.4 °F 21.0 °F 66% 30.12 in 10.0 mi West 5.8 mph - N/A   Mostly Cloudy
6:56 AM 29.1 °F 19.4 °F 22.1 °F 75% 30.14 in 10.0 mi North 11.5 mph - N/A   Mostly Cloudy
7:19 AM 26.6 °F 14.3 °F 23.0 °F 86% 30.11 in 5.0 mi NNW 16.1 mph - N/A   Overcast
7:25 AM 26.6 °F 14.3 °F 23.0 °F 86% 30.11 in 4.0 mi NNW 16.1 mph - N/A   Overcast
7:45 AM 24.8 °F 11.9 °F 21.2 °F 86% 30.13 in 3.0 mi North 16.1 mph - N/A   Overcast
7:56 AM 25.2 °F 12.4 °F 22.1 °F 88% 30.18 in 2.5 mi North 16.1 mph - N/A   Overcast
8:30 AM 24.8 °F 11.1 °F 21.2 °F 86% 30.16 in 2.5 mi North 18.4 mph - N/A   Overcast
8:56 AM 25.2 °F 11.6 °F 21.0 °F 84% 30.23 in 2.5 mi North 18.4 mph - N/A   Overcast
8:58 AM 24.8 °F 11.1 °F 19.4 °F 80% 30.17 in 4.0 mi North 18.4 mph - N/A   Overcast
9:56 AM 24.1 °F 13.1 °F 19.0 °F 81% 30.25 in 5.0 mi North 11.5 mph - N/A   Haze
10:56 AM 25.2 °F 13.3 °F 18.1 °F 75% 30.25 in 7.0 mi North 13.8 mph - N/A   Overcast
11:56 AM 24.1 °F 12.5 °F 15.1 °F 69% 30.28 in 10.0 mi North 12.7 mph - N/A   Overcast
12:37 PM 23.0 °F 11.1 °F 15.8 °F 74% 30.22 in 10.0 mi NNW 12.7 mph - N/A   Overcast
12:56 PM 22.1 °F 9.5 °F 14.0 °F 71% 30.28 in 9.0 mi NNW 13.8 mph - N/A   Overcast
1:56 PM 22.1 °F 10.0 °F 12.0 °F 65% 30.27 in 10.0 mi North 12.7 mph - N/A   Overcast
2:56 PM 21.0 °F 7.6 °F 10.0 °F 63% 30.29 in 10.0 mi North 15.0 mph - N/A   Mostly Cloudy
3:56 PM 20.1 °F 7.5 °F 9.1 °F 62% 30.26 in 10.0 mi North 12.7 mph - N/A   Mostly Cloudy
4:01 PM 19.4 °F 6.6 °F 8.6 °F 63% 30.20 in 10.0 mi North 12.7 mph - N/A   Mostly Cloudy
4:24 PM 19.4 °F 4.5 °F 8.6 °F 63% 30.22 in 10.0 mi North 17.3 mph - N/A   Overcast
4:56 PM 19.0 °F 3.6 °F 9.1 °F 65% 30.29 in 10.0 mi North 18.4 mph - N/A   Overcast
5:56 PM 17.1 °F 1.5 °F 8.1 °F 68% 30.32 in 10.0 mi North 17.3 mph - N/A   Overcast
6:56 PM 16.2 °F 1.9 °F 10.0 °F 77% 30.34 in 3.0 mi North 13.8 mph - 0.00 in Snow Light Snow
7:10 PM 15.8 °F -0.6 °F 10.4 °F 79% 30.28 in 2.5 mi North 18.4 mph - 0.00 in Snow Light Snow
7:36 PM 14.0 °F -1.4 °F 10.4 °F 86% 30.29 in 3.0 mi North 15.0 mph - 0.00 in Snow Light Snow
7:44 PM 14.0 °F -2.0 °F 10.4 °F 86% 30.28 in 3.0 mi North 16.1 mph - 0.00 in   Overcast
7:56 PM 14.0 °F -0.8 °F 11.1 °F 88% 30.36 in 4.0 mi NNE 13.8 mph - 0.00 in   Overcast
8:56 PM 14.0 °F -0.2 °F 11.1 °F 88% 30.36 in 6.0 mi North 12.7 mph - 0.00 in Snow Light Snow
9:56 PM 14.0 °F -1.4 °F 10.0 °F 84% 30.35 in 3.0 mi North 15.0 mph - 0.00 in Snow Light Snow
10:11 PM 12.2 °F -2.5 °F 10.4 °F 92% 30.27 in 2.5 mi NNE 12.7 mph - 0.00 in Snow Light Snow
10:45 PM 12.2 °F -1.8 °F 8.6 °F 85% 30.27 in 5.0 mi North 11.5 mph - 0.00 in Snow Light Snow
10:56 PM 13.1 °F -1.4 °F 9.1 °F 84% 30.38 in 5.0 mi North 12.7 mph - 0.00 in Snow Light Snow
11:04 PM 12.2 °F -3.1 °F 8.6 °F 85% 30.29 in 2.5 mi North 13.8 mph - 0.00 in Snow Light Snow
11:09 PM 12.2 °F -3.1 °F 8.6 °F 85% 30.29 in 1.2 mi North 13.8 mph - 0.00 in Snow Light Snow
11:13 PM 12.2 °F -3.7 °F 8.6 °F 85% 30.29 in 0.8 mi North 15.0 mph - 0.00 in Snow Light Snow
11:21 PM 12.2 °F -3.1 °F 8.6 °F 85% 30.29 in 0.8 mi North 13.8 mph - 0.00 in Snow Light Snow
11:40 PM 12.2 °F -3.7 °F 8.6 °F 85% 30.30 in 1.0 mi North 15.0 mph - 0.00 in Snow Light Snow
11:56 PM 12.0 °F -2.7 °F 8.1 °F 84% 30.39 in 1.0 mi North 12.7 mph - 0.00 in Snow Light Snow